TimeCEST,TemperatureF,Dew PointF,Humidity,Sea Level PressureIn,VisibilityMPH,Wind Direction,Wind SpeedMPH,Gust SpeedMPH,PrecipitationIn,Events,Conditions,WindDirDegrees,DateUTC
12:45 AM,53.6,53.6,100,30.12,1.2,NW,4.6,-,N/A,,Mist,310,2013-09-09 22:45:00
12:53 AM,55.4,53.6,94,30.12,0.3,NW,4.6,-,N/A,Fog,Fog,320,2013-09-09 22:53:00
1:45 AM,55.4,53.6,94,30.12,0.1,NW,4.6,-,N/A,Fog,Fog,320,2013-09-09 23:45:00
2:00 AM,54,53,97,30.12,0,NW,4.5,,,Fog,Partial Fog,320,2013-09-10 00:00:00
2:45 AM,55.4,55.4,100,30.12,0.4,NNW,5.8,-,N/A,Fog,Fog,330,2013-09-10 00:45:00
3:45 AM,55.4,53.6,94,30.12,0.5,NNW,6.9,-,N/A,Fog,Fog,340,2013-09-10 01:45:00
4:45 AM,55.4,53.6,94,30.12,0.2,NW,3.5,-,N/A,Fog,Fog,320,2013-09-10 02:45:00
5:45 AM,55.4,53.6,94,30.12,0.2,NW,2.3,-,N/A,Fog,Fog,320,2013-09-10 03:45:00
6:15 AM,55.4,53.6,94,30.12,0.2,NNW,2.3,-,N/A,Fog,Fog,330,2013-09-10 04:15:00
6:45 AM,55.4,53.6,94,30.12,0.3,North,1.2,-,N/A,Fog,Fog,10,2013-09-10 04:45:00
7:15 AM,55.4,53.6,94,30.12,0.3,North,2.3,-,N/A,Fog,Fog,350,2013-09-10 05:15:00
7:45 AM,55.4,55.4,100,30.12,0.5,NNW,2.3,-,N/A,Fog,Fog,340,2013-09-10 05:45:00
8:00 AM,56,54,93,30.12,0,NNW,2.2,,,Fog,Partial Fog,340,2013-09-10 06:00:00
8:15 AM,57.2,55.4,94,30.12,1.2,NNW,2.3,-,N/A,,Overcast,330,2013-09-10 06:15:00
8:45 AM,55.4,55.4,100,30.12,1.9,ESE,1.2,-,N/A,,Mostly Cloudy,120,2013-09-10 06:45:00
9:15 AM,57.2,55.4,94,30.12,2.5,South,2.3,-,N/A,,Mostly Cloudy,180,2013-09-10 07:15:00
9:45 AM,59.0,57.2,94,30.12,2.8,Calm,Calm,-,N/A,,Mostly Cloudy,0,2013-09-10 07:45:00
10:15 AM,59.0,57.2,94,30.12,3.1,West,1.2,-,N/A,,Overcast,280,2013-09-10 08:15:00
10:45 AM,60.8,55.4,82,30.12,3.7,WSW,2.3,-,N/A,,Overcast,250,2013-09-10 08:45:00
11:15 AM,60.8,55.4,82,30.12,4.3,WSW,2.3,-,N/A,,Overcast,240,2013-09-10 09:15:00
11:45 AM,60.8,55.4,82,30.12,5.0,SSE,2.3,-,N/A,,Mostly Cloudy,150,2013-09-10 09:45:00
12:15 PM,62.6,55.4,77,30.12,6.2,North,2.3,-,N/A,,Mostly Cloudy,10,2013-09-10 10:15:00
12:45 PM,64.4,55.4,73,30.09,6.2,SE,1.2,-,N/A,,Mostly Cloudy,140,2013-09-10 10:45:00
1:15 PM,66.2,55.4,68,30.09,6.2,SSE,2.3,-,N/A,,Mostly Cloudy,160,2013-09-10 11:15:00
1:45 PM,68.0,55.4,64,30.09,6.2,East,3.5,-,N/A,,Mostly Cloudy,80,2013-09-10 11:45:00
2:00 PM,67,56,59,30.09,7,East,4.5,,,,Partly Cloudy,80,2013-09-10 12:00:00
2:15 PM,68.0,55.4,64,30.09,6.2,East,4.6,-,N/A,,Mostly Cloudy,80,2013-09-10 12:15:00
2:45 PM,69.8,55.4,60,30.06,6.2,NE,5.8,-,N/A,,Mostly Cloudy,50,2013-09-10 12:45:00
3:15 PM,68.0,57.2,68,30.06,6.2,East,6.9,-,N/A,,Scattered Clouds,80,2013-09-10 13:15:00
3:45 PM,68.0,55.4,64,30.04,-9999.0,East,5.8,-,N/A,,Clear,80,2013-09-10 13:45:00
4:15 PM,68.0,55.4,64,30.04,-9999.0,East,5.8,-,N/A,,Clear,90,2013-09-10 14:15:00
4:45 PM,68.0,55.4,64,30.04,-9999.0,SE,4.6,-,N/A,,Clear,130,2013-09-10 14:45:00
5:15 PM,66.2,55.4,68,30.04,-9999.0,ENE,6.9,-,N/A,,Clear,70,2013-09-10 15:15:00
5:45 PM,66.2,55.4,68,30.01,-9999.0,East,4.6,-,N/A,,Clear,100,2013-09-10 15:45:00
6:15 PM,66.2,55.4,68,30.01,-9999.0,East,5.8,-,N/A,,Clear,100,2013-09-10 16:15:00
6:45 PM,66.2,55.4,68,30.01,-9999.0,East,4.6,-,N/A,,Clear,90,2013-09-10 16:45:00
7:15 PM,62.6,55.4,77,30.01,-9999.0,East,2.3,-,N/A,,Clear,90,2013-09-10 17:15:00
7:45 PM,62.6,55.4,77,30.01,-9999.0,East,4.6,-,N/A,,Clear,80,2013-09-10 17:45:00
8:00 PM,62,55,72,29.99,6,East,4.5,,,,Partly Cloudy,80,2013-09-10 18:00:00
8:15 PM,59.0,55.4,88,30.01,5.0,NNE,2.3,-,N/A,,Mostly Cloudy,30,2013-09-10 18:15:00
8:45 PM,59.0,55.4,88,30.01,5.0,ENE,4.6,-,N/A,,Mostly Cloudy,70,2013-09-10 18:45:00
9:15 PM,59.0,55.4,88,29.98,5.0,NE,3.5,-,N/A,,Mostly Cloudy,50,2013-09-10 19:15:00
9:45 PM,60.8,55.4,82,29.98,5.0,East,3.5,-,N/A,,Mostly Cloudy,80,2013-09-10 19:45:00
10:45 PM,59.0,55.4,88,29.98,5.0,NNW,2.3,-,N/A,,Overcast,330,2013-09-10 20:45:00
11:42 PM,59.0,57.2,94,29.98,3.7,North,2.3,-,N/A,Rain,Light Rain,10,2013-09-10 21:42:00
11:45 PM,59.0,57.2,94,29.98,3.7,North,2.3,-,N/A,Rain,Light Rain,10,2013-09-10 21:45:00